sat.trackr.live / text

‹ back to catalog

STARLINK-1795

NORAD 46696 · 2020-073AC

PAYLOAD ACTIVE UNKNOWN

§ Identity

Operator
Country
US
Launch date
2020-10-18
Launch site
AFETR
Launch vehicle
Mass (kg)
RCS (m²)

Purposes: comms

External: N2YO · Heavens-Above · Gunter

§ Orbital elements

Epoch: 2026-05-25T06:00:02.000160Z

Period
90.47 min
Inclination
53.0308°
Eccentricity
0.0010508
Mean motion
15.91726458 rev/d
Perigee alt
290.4 km
Apogee alt
304.5 km
Semi-major
6,675.6 km
B*
6.2079e-4
RAAN
157.8582°
Arg perigee
20.3369°
Mean anomaly
168.7100°
Rev number
579

§ Raw data

STARLINK-17951 46696U 20073AC  26145.25002315  .00205759  26862-4  62079-3 0  99922 46696  53.0308 157.8582 0010508  20.3369 168.7100 15.91726458  5797

JSON: /api/v1/satellites/46696 · /tle

For live sub-satellite position, see the globe view (requires WebGL).

§ Visibility from observer

Set your observer location to see the next 7 days of passes ≥ 10°. The values pass through the URL so the page stays shareable.

No JS? Fill the form by hand. The geolocation button needs JavaScript.